Location: Castelnau
(43.6639°N, 0.8431°W)
Time: 17:20:04
(UTC+00:00)

Cosmos 1515 Rocket - Pass Details

Date: 13 January 2026
Orbit: 599 x 623 km, 82.5° (Epoch: 11 February)

Event Time Altitude Azimuth Distance (km) Brightness Sun altitude
Exits shadow 05:06:03 30° 19° (NNE) 1,114 4.9 -26.3°
Maximum altitude 05:07:53 50° 78° (ENE) 787 4.3 -26.0°
Drops below altitude 10° 05:12:08 10° 155° (SSE) 1,969 6.5 -25.2°
Sets 05:14:24 0° 160° (SSE) 2,865 7.3 -24.8°
